STARLINK-35520 (66133 NORAD) Tracking and Keplerian Element Data

This shows tracking and keplerian element data for the satellite.

Feedback or suggestion? Click here.




ElementValue
Catalog66133
NameSTARLINK-35520
Epoch Orbit1039
Epoch Day354.20661134
Epoch Year2025
RAAN52.1978
Inclination53.1604
Eccentricity0.0001845
Argument of Perigee126.6727
Mean Anonmoly233.4448
Mean Motion15.39662857
Decay Rate0.00036623
L11 66133U 25237V 25354.20661134 .00036623 00000+0 91984-3 0 9993
L22 66133 53.1604 52.1978 0001845 126.6727 233.4448 15.39662857 10394



Live tracking and technical data element details for STARLINK-35520 (NORAD 66133). STARLINK-35520 can be tracked NOW for your location showing map with azimuth and elevation plus other details from your city location.







IsCatalogInMostPopularTable: catalog: 66133, numindb: 7
Update: records affected: 1



GetName: 66133 STARLINK-35520

Hit Count: updated at: Mon, 20 Apr 2026 09:50:02 GMT